FW2442 Weather Reports


Display with metric or nautical units.
time (UTC)temp
F
wind
direction
speed
MPH
gust
MPH
rain 1hr
in
rain 24hr
in
rain mn
in
humidity
%
barometer
mb
20260507040541 55 113 1.0 2.0 0.00 0.00 0.00 67 1015.7
20260507035518 54 114 1.0 2.0 0.00 0.00 0.00 67 1015.6
20260507034541 54 104 1.0 2.0 0.00 0.00 0.00 67 1015.6
20260507033525 54 110 2.0 2.0 0.00 0.00 0.00 66 1015.6
20260507032519 55 110 1.0 4.0 0.00 0.00 0.00 65 1015.5
20260507031519 55 111 2.0 3.0 0.00 0.00 0.00 63 1015.5
20260507030521 56 119 1.0 2.0 0.00 0.00 0.00 60 1015.4
20260507025539 56 116 0.0 2.0 0.00 0.00 0.00 60 1015.4
20260507024519 56 153 1.0 2.0 0.00 0.00 0.00 59 1015.3
20260507023518 57 150 2.0 3.0 0.00 0.00 0.00 58 1015.2
20260507022518 57 157 1.0 2.0 0.00 0.00 0.00 57 1015.2
20260507021519 57 133 0.0 1.0 0.00 0.00 0.00 57 1015.2
20260507020539 57 160 1.0 2.0 0.00 0.00 0.00 57 1015.2
20260507015518 58 165 1.0 2.0 0.00 0.00 0.00 56 1015.1
20260507014539 58 174 1.0 2.0 0.00 0.00 0.00 56 1015.1
20260507013520 58 170 2.0 3.0 0.00 0.00 0.00 56 1015.1
20260507012518 58 171 2.0 6.0 0.00 0.00 0.00 56 1015.1
20260507011538 58 160 2.0 6.0 0.00 0.00 0.00 57 1015.1
20260507010518 58 147 2.0 2.0 0.00 0.00 0.00 57 1015.1
20260507005558 58 139 1.0 2.0 0.00 0.00 0.00 57 1015.2
20260507004524 59 153 2.0 3.0 0.00 0.00 0.00 56 1015.1
20260507003518 59 154 2.0 7.0 0.00 0.00 0.00 55 1015.1
20260507002520 59 157 2.0 5.0 0.00 0.00 0.00 54 1015.1
20260507001519 59 179 3.0 6.0 0.00 0.00 0.00 54 1015.1
20260507000519 60 174 3.0 6.0 0.00 0.00 0.00 54 1015.1
20260506235519 60 159 4.0 9.0 0.00 0.00 0.00 53 1015.1
20260506234520 60 162 4.0 9.0 0.00 0.00 0.00 53 1015.1
20260506233518 60 169 4.0 9.0 0.00 0.00 0.00 54 1015.1
20260506232518 61 167 5.0 12.0 0.00 0.00 0.00 54 1015.0
20260506231519 61 157 4.0 10.0 0.00 0.00 0.00 54 1015.1
20260506230538 61 165 5.0 12.0 0.00 0.00 0.00 55 1015.1
20260506225517 61 174 6.0 14.0 0.00 0.00 0.00 56 1015.0
20260506224519 61 165 5.0 8.0 0.00 0.00 0.00 57 1015.0
20260506223520 61 168 6.0 13.0 0.00 0.00 0.00 58 1015.1
20260506222518 62 172 6.0 11.0 0.00 0.00 0.00 58 1015.1
20260506221518 62 168 7.0 14.0 0.00 0.00 0.00 59 1015.1
20260506220518 62 178 7.0 14.0 0.00 0.00 0.00 59 1015.0
20260506215538 62 169 7.0 15.0 0.00 0.00 0.00 59 1014.9
20260506214518 62 167 9.0 17.0 0.00 0.00 0.00 59 1014.9
20260506213518 63 161 10.0 18.0 0.00 0.00 0.00 58 1014.8
20260506212518 63 157 10.0 18.0 0.00 0.00 0.00 58 1014.7
20260506211529 63 166 10.0 15.0 0.00 0.00 0.00 57 1014.7
20260506210539 64 174 9.0 17.0 0.00 0.00 0.00 57 1014.6
20260506205518 64 158 7.0 14.0 0.00 0.00 0.00 56 1014.7
20260506204540 64 163 6.0 13.0 0.00 0.00 0.00 56 1014.6
20260506203518 65 156 4.0 14.0 0.00 0.00 0.00 55 1014.6
20260506202518 65 159 3.0 9.0 0.00 0.00 0.00 54 1014.4
20260506201540 65 155 4.0 14.0 0.00 0.00 0.00 54 1014.5
20260506200540 66 163 3.0 7.0 0.00 0.00 0.00 53 1014.4
20260506195519 66 162 4.0 12.0 0.00 0.00 0.00 53 1014.3
20260506194519 66 148 4.0 8.0 0.00 0.00 0.00 53 1014.2
20260506193520 66 154 3.0 10.0 0.00 0.00 0.00 53 1014.1
20260506192520 67 154 4.0 11.0 0.00 0.00 0.00 52 1014.2
20260506191522 67 162 4.0 10.0 0.00 0.00 0.00 51 1014.0
20260506190519 68 153 5.0 12.0 0.00 0.00 0.00 50 1014.0
20260506185539 68 166 7.0 16.0 0.00 0.00 0.00 50 1013.8
20260506184520 68 170 4.0 11.0 0.00 0.00 0.00 49 1013.6
20260506183520 69 156 6.0 11.0 0.00 0.00 0.00 49 1013.5
20260506182519 69 160 5.0 13.0 0.00 0.00 0.00 49 1013.4
20260506181520 69 166 3.0 8.0 0.00 0.00 0.00 48 1013.3
20260506180519 69 159 4.0 8.0 0.00 0.00 0.00 48 1013.2
20260506175518 70 169 3.0 9.0 0.00 0.00 0.00 48 1013.1
20260506174517 70 151 2.0 3.0 0.00 0.00 0.00 47 1012.9
20260506173518 71 158 2.0 4.0 0.00 0.00 0.00 46 1012.9
20260506172518 72 182 1.0 5.0 0.00 0.00 0.00 45 1012.8
20260506171520 72 174 3.0 8.0 0.00 0.00 0.00 44 1012.7
20260506170518 73 169 3.0 7.0 0.00 0.00 0.00 42 1012.7
20260506165522 74 169 5.0 11.0 0.00 0.00 0.00 42 1012.6
20260506164520 75 182 5.0 10.0 0.00 0.00 0.00 40 1012.5
20260506163519 76 178 6.0 11.0 0.00 0.00 0.00 39 1012.3
20260506162519 76 178 8.0 13.0 0.00 0.00 0.00 39 1012.5
20260506161519 77 158 4.0 11.0 0.00 0.00 0.00 39 1012.3
20260506160520 78 160 3.0 8.0 0.00 0.00 0.00 38 1012.3
20260506155518 78 154 4.0 11.0 0.00 0.00 0.00 38 1012.2
20260506154519 79 163 3.0 7.0 0.00 0.00 0.00 37 1012.2
20260506153519 79 136 2.0 6.0 0.00 0.00 0.00 36 1012.2
20260506152520 80 145 2.0 5.0 0.00 0.00 0.00 36 1012.1
20260506151520 79 159 2.0 8.0 0.00 0.00 0.00 37 1012.3
20260506150519 79 174 6.0 14.0 0.00 0.00 0.00 36 1012.3
20260506145519 80 172 4.0 9.0 0.00 0.00 0.00 35 1012.3
20260506143520 80 171 7.0 13.0 0.00 0.00 0.00 35 1012.5
20260506142519 81 186 7.0 12.0 0.00 0.00 0.00 34 1012.3
20260506141520 81 167 3.0 9.0 0.00 0.00 0.00 35 1012.4
20260506140519 81 184 4.0 8.0 0.00 0.00 0.00 35 1012.3
20260506135539 81 163 4.0 10.0 0.00 0.00 0.00 35 1012.4
20260506134520 81 180 4.0 13.0 0.00 0.00 0.00 34 1012.4
20260506133519 81 174 4.0 9.0 0.00 0.00 0.00 34 1012.4
20260506132522 81 172 3.0 6.0 0.00 0.00 0.00 34 1012.4
20260506131519 81 174 3.0 7.0 0.00 0.00 0.00 34 1012.5
20260506130519 81 186 4.0 12.0 0.00 0.00 0.00 33 1012.5
20260506125519 81 172 4.0 11.0 0.00 0.00 0.00 33 1012.6
20260506124520 82 189 3.0 9.0 0.00 0.00 0.00 32 1012.7
20260506123521 81 173 6.0 12.0 0.00 0.00 0.00 33 1012.8
20260506122603 81 192 3.0 8.0 0.00 0.00 0.00 33 1012.9
20260506121527 81 185 6.0 13.0 0.00 0.00 0.00 32 1013.0
20260506120522 82 140 2.0 5.0 0.00 0.00 0.00 33 1013.0
20260506115542 81 174 5.0 10.0 0.00 0.00 0.00 31 1013.2
20260506114520 81 177 3.0 8.0 0.00 0.00 0.00 30 1013.3
20260506113522 81 166 2.0 5.0 0.00 0.00 0.00 31 1013.3
20260506112519 81 132 4.0 9.0 0.00 0.00 0.00 32 1013.3
20260506111519 81 171 5.0 9.0 0.00 0.00 0.00 34 1013.4
20260506110539 80 191 6.0 11.0 0.00 0.00 0.00 34 1013.5
20260506105521 80 147 4.0 8.0 0.00 0.00 0.00 35 1013.5
20260506104523 80 134 3.0 7.0 0.00 0.00 0.00 35 1013.5
20260506103522 80 160 3.0 8.0 0.00 0.00 0.00 36 1013.6
20260506102524 79 187 3.0 9.0 0.00 0.00 0.00 37 1013.7
20260506101523 79 153 2.0 4.0 0.00 0.00 0.00 37 1013.7
20260506100521 79 163 3.0 8.0 0.00 0.00 0.00 37 1013.8
20260506095523 78 169 2.0 3.0 0.00 0.00 0.00 38 1013.9
20260506094520 77 121 3.0 7.0 0.00 0.00 0.00 39 1014.0
20260506093522 77 181 4.0 9.0 0.00 0.00 0.00 40 1014.1
20260506092520 77 187 4.0 9.0 0.00 0.00 0.00 39 1014.1
20260506091519 77 152 1.0 3.0 0.00 0.00 0.00 41 1014.1
20260506090522 76 164 2.0 7.0 0.00 0.00 0.00 41 1014.2
20260506085522 75 145 3.0 5.0 0.00 0.00 0.00 43 1014.1
20260506084520 74 128 1.0 2.0 0.00 0.00 0.00 43 1014.2
20260506083521 73 151 3.0 6.0 0.00 0.00 0.00 45 1014.2
20260506082522 72 126 1.0 2.0 0.00 0.00 0.00 45 1014.2
20260506081540 71 138 3.0 7.0 0.00 0.00 0.00 47 1014.3
20260506080525 71 144 3.0 7.0 0.00 0.00 0.00 47 1014.2
20260506073521 69 168 1.0 4.0 0.00 0.00 0.00 50 1014.4
20260506072520 68 173 0.0 4.0 0.00 0.00 0.00 50 1014.4
20260506071526 67 179 0.0 1.0 0.00 0.00 0.00 50 1014.4
20260506070545 66 124 1.0 6.0 0.00 0.00 0.00 52 1014.4
20260506061546 63 120 0.0 1.0 0.00 0.00 0.00 55 1014.7
20260506060547 62 120 0.0 1.0 0.00 0.00 0.00 55 1014.8
20260506050521 57 0.0 0.0 0.00 0.00 0.00 61 1014.7
20260506044541 56 0.0 0.0 0.00 0.00 0.00 66 1014.7
20260506043526 55 0.0 0.0 0.00 0.00 0.00 68 1014.8
20260506042527 54 0.0 0.0 0.00 0.00 0.00 68 1014.8
20260506041526 53 0.0 0.0 0.00 0.00 0.00 69 1014.8